[[{"header":{"parameterUnit":"m.s-1","parameterCategory":1,"la1":30.2991,"la2":30.254,"lo1":-89.0895,"lo2":-89.0444,"dy":0.0017,"dx":0.0017,"nx":28,"ny":28,"refTime":"2025-07-06T21:00:00:Z","depth":0,"parameterNumber":2,"parameterNumberName":"U-component_of_WINDS"},"data":[0,0,0,0,0,0,0,0,0,0,0,0,0,0,0,0,0,0,0,0,0,0,0,0,0,0,0,0,0,0,0,0,0,0,0,0,0,0,0,0,0,0,0,0,0,0,0,0,0,0,0,0,0,0,0,0,0,0,2.913,2.9131,0,2.9276,2.9278,2.928,2.9274,2.9271,2.9269,2.9267,2.9424,2.943,2.9436,0,0,0,0,0,0,0,0,0,0,0,0,0,2.885,2.8855,2.913,2.9131,2.9133,2.9276,2.9278,2.928,2.9274,2.9271,2.9269,2.9266,2.9422,2.9429,2.9436,0,0,0,0,0,0,0,0,0,0,0,0,0,2.8982,2.8857,2.9129,2.9147,2.915,2.9276,2.9278,2.9281,2.9274,2.9271,2.9268,2.9265,2.9419,2.9428,2.9437,2.9557,0,0,2.9465,2.9469,0,0,0,0,0,0,0,0,2.8974,2.8992,2.9143,2.9146,2.915,2.9253,2.9237,2.9373,2.9275,2.9228,2.9267,2.9264,2.937,2.9383,2.9418,2.9564,2.9571,2.9466,2.9472,2.9476,2.9478,0,0,0,0,0,0,0,2.8965,2.8986,2.9188,2.9145,2.9149,2.915,2.9165,2.9263,2.9315,2.9231,2.9231,2.9248,2.9371,2.9409,2.9421,2.9573,2.9466,2.9474,2.948,2.9483,2.9824,2.9828,0,0,0,0,0,0,2.8951,2.8978,2.9183,2.9192,2.9052,2.9157,2.9174,2.9223,2.9314,2.9324,2.9251,2.9248,2.9395,2.9411,2.9427,2.9572,2.9476,2.9484,2.949,2.9821,2.9825,2.9829,0,0,0,0,0,0,2.8945,2.8969,2.9177,2.9085,2.9112,2.9165,2.9221,2.9228,2.9265,2.9328,2.9338,2.9279,2.9393,2.9414,2.9524,2.9577,2.9488,2.9497,2.9817,2.9822,2.9827,2.9863,0,0,0,0,0,0,2.8937,2.8967,2.9012,2.9086,2.9116,2.927,2.9224,2.9233,2.928,2.9277,2.9357,2.9368,2.9392,2.951,2.9533,2.9588,2.9504,2.9812,2.9819,2.9826,2.9858,2.9869,2.9879,0,0,0,0,0,2.8927,2.9018,2.9014,2.9039,2.9173,2.9273,2.9291,2.9315,2.9285,2.9331,2.9371,2.9365,2.9568,2.9522,2.9547,2.9606,2.9809,2.9817,2.9825,2.9853,2.9867,2.9879,0,0,0,0,0,0,2.895,2.9028,2.9025,2.9141,2.92,2.9272,2.9331,2.933,2.94,2.9395,2.9424,2.9442,2.9552,2.9591,2.9538,2.9726,2.9685,2.9698,2.9697,2.9711,2.9722,2.971,2.9511,0,0,0,0,0,2.8968,2.9042,2.9106,2.9203,2.9233,2.9277,2.9321,2.9335,2.9398,2.9424,2.9472,2.9536,2.9614,2.9665,2.974,2.9863,2.9881,2.9916,2.9927,2.9936,2.9947,3.0015,3.0032,2.9855,2.9855,2.9855,0,0,2.9008,2.9059,2.9104,2.9209,2.9256,2.9333,2.9298,2.9381,2.9438,2.9437,2.9543,2.9581,2.9654,2.9771,2.9825,2.9806,3.0,2.9946,2.9952,2.9959,3.0025,3.0042,3.0056,2.9861,2.986,2.9859,0,0,2.9118,2.9164,2.925,2.9298,2.9369,2.9398,2.9418,2.949,2.9514,2.9621,2.9621,2.9692,2.9825,2.9877,2.9921,3.0051,3.0048,3.0075,3.0131,3.0197,3.0211,3.0223,3.027,3.0286,3.0086,3.0086,3.0086,0,2.9159,2.9272,2.9294,2.9377,2.9424,2.9424,2.9512,2.9558,2.9651,2.9684,2.9661,2.9828,2.9878,3.0007,3.0038,3.0074,3.0099,3.0066,3.0207,3.022,3.0232,3.0276,3.0293,3.0089,3.0088,3.0088,3.0088,0,2.9318,2.9397,2.9458,2.9546,2.9599,2.9684,2.9721,2.9773,2.9782,2.9813,2.9922,2.9981,3.0068,3.01,3.0111,3.0231,3.0217,3.02,3.0159,3.0251,3.0293,3.031,3.0093,3.0092,3.0091,3.009,0,0,2.9447,2.9545,2.9567,2.9607,2.9686,2.9749,2.9834,2.9917,2.9961,3.0026,3.0099,3.0212,3.0197,3.0246,3.0263,3.0321,3.042,3.0297,3.03,3.0318,3.0556,3.0568,3.0587,3.0419,3.0422,3.0425,3.055,0,2.9566,2.9715,2.9737,2.987,2.9943,2.9945,3.002,3.0077,3.0109,3.0178,3.0214,3.0293,3.0267,3.0297,3.0354,3.0395,3.0468,3.0387,3.0488,3.0491,3.0469,3.0609,3.0622,3.0737,3.0567,3.0569,3.0571,0,2.9723,2.979,2.9929,2.9997,3.0029,3.0096,3.0173,3.0239,3.0305,3.0324,3.0379,3.0388,3.0479,3.0434,3.0559,3.0503,3.0546,3.0573,3.0578,3.0588,3.0536,3.0623,3.0774,3.0791,3.0598,3.0596,3.0594,0,2.9803,2.9928,3.0027,3.0061,3.0144,3.019,3.0227,3.029,3.0338,3.0407,3.0439,3.0518,3.0562,3.0624,3.0655,3.0619,3.0778,3.0736,3.0798,3.0797,3.0831,3.0828,3.0991,3.0859,3.0859,3.0859,3.0858,0,2.9933,3.0018,3.0063,3.0125,3.022,3.0246,3.0341,3.0377,3.0432,3.0502,3.0509,3.0574,3.0611,3.0683,3.0708,3.0808,3.0828,3.0847,3.0852,3.0846,3.0843,3.0874,3.0867,3.0863,3.0862,3.0861,3.0861,0,3.0037,3.0072,3.018,3.0248,3.0268,3.0335,3.0395,3.0455,3.0487,3.0574,3.0596,3.0647,3.0731,3.0768,3.0872,3.0889,3.1003,3.1004,3.098,3.0982,3.1041,3.1035,3.1229,3.1256,3.1107,3.1108,3.111,0,3.0117,3.0182,3.0258,3.0304,3.0341,3.0415,3.0464,3.0493,3.0544,3.0623,3.0674,3.0758,3.0826,3.0961,3.1008,3.1088,3.109,3.1152,3.1102,3.1093,3.109,3.1086,3.1092,3.1161,3.1163,3.1164,3.1165,0,3.0256,3.0269,3.0338,3.0414,3.0471,3.0532,3.0592,3.063,3.0668,3.0726,3.081,3.0863,3.0969,3.1052,3.1135,3.1175,3.1177,3.1181,3.1199,3.1193,3.1176,3.1185,3.1005,3.1176,3.1175,3.1174,3.1174,3.1173,3.0351,3.0408,3.047,3.0547,3.0594,3.065,3.071,3.0748,3.0818,3.0905,3.0918,3.1009,3.1074,3.1185,3.1228,3.13,3.1285,3.1312,3.1319,3.1325,3.1328,3.1165,3.1316,3.1316,3.1315,3.1315,3.1315,0,3.0489,3.0528,3.0598,3.0681,3.0742,3.0737,3.0803,3.0854,3.0933,3.0993,3.1059,3.1157,3.1238,3.1291,3.1373,3.1421,3.1424,3.1441,3.1438,3.1447,3.1337,3.1313,3.1437,3.1437,3.1437,3.1437,3.1437,3.1437,3.0567,3.0664,3.0685,3.0807,3.0847,3.0934,3.0972,3.1024,3.1071,3.1179,3.1245,3.1279,3.1336,3.1422,3.1496,3.151,3.154,3.1558,3.1571,3.1467,3.1455,3.1442,3.1419,3.1564,3.1565,3.1674,3.1675,3.1676]},{"header":{"parameterUnit":"m.s-1","parameterCategory":1,"la1":30.2991,"la2":30.254,"lo1":-89.0895,"lo2":-89.0444,"dy":0.0017,"dx":0.0017,"nx":28,"ny":28,"refTime":"2025-07-06T21:00:00:Z","depth":0,"parameterNumber":3,"parameterNumberName":"V-component_of_WINDS"},"data":[0,0,0,0,0,0,0,0,0,0,0,0,0,0,0,0,0,0,0,0,0,0,0,0,0,0,0,0,0,0,0,0,0,0,0,0,0,0,0,0,0,0,0,0,0,0,0,0,0,0,0,0,0,0,0,0,0,0,3.0376,3.0376,0,3.0366,3.0365,3.0365,3.0361,3.0361,3.0361,3.0361,3.0348,3.0347,3.0347,0,0,0,0,0,0,0,0,0,0,0,0,0,3.0389,3.0388,3.0376,3.0376,3.0376,3.0366,3.0365,3.0365,3.0361,3.0361,3.0361,3.0361,3.0348,3.0348,3.0347,0,0,0,0,0,0,0,0,0,0,0,0,0,3.0381,3.0388,3.0376,3.0372,3.0372,3.0366,3.0365,3.0365,3.0361,3.0361,3.0361,3.0361,3.0348,3.0348,3.0347,3.0343,0,0,3.0345,3.0345,0,0,0,0,0,0,0,0,3.0381,3.0381,3.0373,3.0373,3.0372,3.0365,3.0365,3.0358,3.0361,3.0365,3.0361,3.0361,3.0353,3.0352,3.035,3.0342,3.0341,3.0345,3.0345,3.0345,3.0344,0,0,0,0,0,0,0,3.0382,3.0381,3.0372,3.0373,3.0372,3.037,3.0369,3.0364,3.0359,3.0365,3.0364,3.0363,3.0353,3.0351,3.035,3.0341,3.0345,3.0345,3.0344,3.0344,3.0326,3.0326,0,0,0,0,0,0,3.0384,3.0381,3.0372,3.0372,3.0377,3.037,3.0369,3.0367,3.0359,3.0358,3.0363,3.0363,3.0352,3.035,3.0349,3.0342,3.0345,3.0344,3.0344,3.0326,3.0326,3.0326,0,0,0,0,0,0,3.0384,3.0383,3.0373,3.0376,3.0375,3.037,3.0368,3.0367,3.0364,3.0358,3.0357,3.0362,3.0352,3.035,3.0344,3.0341,3.0344,3.0343,3.0326,3.0326,3.0326,3.0328,0,0,0,0,0,0,3.0384,3.0383,3.0382,3.0376,3.0375,3.0369,3.0368,3.0367,3.0364,3.0364,3.0356,3.0355,3.0352,3.0345,3.0343,3.0341,3.0343,3.0326,3.0326,3.0326,3.0328,3.0328,3.0328,0,0,0,0,0,3.0385,3.0384,3.0382,3.0381,3.0374,3.0369,3.0367,3.0364,3.0364,3.0362,3.0357,3.0356,3.0342,3.0344,3.0342,3.034,3.0327,3.0326,3.0326,3.0328,3.0328,3.0328,0,0,0,0,0,0,3.0389,3.0383,3.0381,3.0379,3.0374,3.0368,3.0366,3.0364,3.0359,3.0359,3.0354,3.0352,3.0346,3.0342,3.0345,3.0333,3.0334,3.0333,3.0336,3.0336,3.0336,3.0336,3.0342,0,0,0,0,0,3.039,3.0387,3.0381,3.0379,3.0377,3.0372,3.0369,3.0367,3.0362,3.036,3.0355,3.0349,3.0343,3.0339,3.0334,3.0328,3.0325,3.0324,3.0324,3.0324,3.0323,3.0317,3.0316,3.0325,3.0325,3.0325,0,0,3.0391,3.0387,3.0386,3.038,3.0376,3.0372,3.037,3.0366,3.0362,3.0359,3.0352,3.0348,3.0341,3.0334,3.0331,3.0331,3.032,3.0324,3.0324,3.0323,3.0317,3.0316,3.0315,3.0324,3.0325,3.0325,0,0,3.0391,3.0389,3.0386,3.0382,3.0376,3.0372,3.0371,3.0365,3.0362,3.0356,3.0352,3.0346,3.0337,3.0332,3.0328,3.0323,3.032,3.0321,3.032,3.0314,3.0313,3.0313,3.0309,3.0308,3.032,3.0321,3.0321,0,3.0393,3.0388,3.0384,3.038,3.0376,3.0373,3.0368,3.0364,3.0357,3.0354,3.0354,3.034,3.0336,3.0326,3.0325,3.0322,3.032,3.0322,3.0314,3.0313,3.0312,3.0309,3.0308,3.0321,3.0321,3.0321,3.0321,0,3.0389,3.0385,3.0383,3.0376,3.0373,3.0368,3.0363,3.0359,3.0356,3.0351,3.0343,3.0337,3.0329,3.0327,3.0324,3.0316,3.0316,3.0315,3.0315,3.0312,3.0308,3.0307,3.0321,3.0321,3.0321,3.0321,0,0,3.0393,3.0383,3.0382,3.0378,3.037,3.0366,3.036,3.0353,3.0349,3.0343,3.0337,3.0328,3.0327,3.0322,3.0318,3.0313,3.0307,3.0312,3.0312,3.031,3.0295,3.0295,3.0294,3.0305,3.0305,3.0305,3.0295,0,3.0391,3.0382,3.0378,3.037,3.0365,3.036,3.0355,3.0349,3.0344,3.0337,3.0332,3.0325,3.0324,3.0321,3.0316,3.0309,3.0304,3.031,3.0297,3.0297,3.0299,3.0292,3.0293,3.0284,3.0294,3.0294,3.0293,0,3.0388,3.0382,3.0374,3.0365,3.0363,3.0358,3.035,3.0344,3.0336,3.0333,3.0326,3.0322,3.0314,3.0315,3.0302,3.0306,3.03,3.0296,3.0295,3.0294,3.0295,3.0289,3.0282,3.028,3.0292,3.0292,3.0292,0,3.039,3.038,3.0373,3.037,3.0359,3.0356,3.0351,3.0343,3.0338,3.033,3.0326,3.0317,3.0312,3.0304,3.0296,3.0298,3.0283,3.0284,3.0279,3.0279,3.0276,3.0276,3.0266,3.0274,3.0274,3.0274,3.0274,0,3.0388,3.0382,3.0373,3.0369,3.0362,3.0356,3.0349,3.0344,3.0336,3.0329,3.0324,3.0318,3.0309,3.03,3.0294,3.0283,3.0281,3.0277,3.0275,3.0277,3.0277,3.0273,3.0272,3.0274,3.0274,3.0274,3.0274,0,3.0389,3.0383,3.0375,3.0365,3.0362,3.0357,3.0348,3.0343,3.0337,3.0328,3.0326,3.0316,3.0306,3.0297,3.0284,3.0279,3.0267,3.0266,3.027,3.0269,3.0263,3.0264,3.025,3.0247,3.0258,3.0258,3.0257,0,3.0387,3.0383,3.0373,3.0368,3.0363,3.0356,3.0351,3.0343,3.0338,3.0326,3.0322,3.0311,3.0302,3.0285,3.0276,3.0264,3.0262,3.0258,3.026,3.0261,3.026,3.026,3.0258,3.0258,3.0258,3.0258,3.0257,0,3.0385,3.0382,3.0375,3.0366,3.036,3.0352,3.0345,3.0341,3.0332,3.0325,3.0314,3.0307,3.0293,3.0281,3.0268,3.0262,3.0257,3.0257,3.0254,3.0256,3.0258,3.0255,3.0268,3.0257,3.0257,3.0257,3.0257,3.0257,3.0384,3.0379,3.0371,3.0362,3.0356,3.0348,3.0342,3.0335,3.0326,3.0314,3.031,3.0298,3.0287,3.027,3.0262,3.0252,3.0251,3.0249,3.0248,3.0247,3.0246,3.026,3.0249,3.0249,3.0249,3.0249,3.0249,0,3.0381,3.0375,3.0367,3.0356,3.0348,3.0346,3.0336,3.033,3.032,3.031,3.0301,3.0287,3.0275,3.0264,3.0251,3.0245,3.0242,3.0241,3.0241,3.0239,3.0248,3.0251,3.0244,3.0244,3.0244,3.0244,3.0244,3.0244,3.0378,3.0369,3.0364,3.0351,3.0344,3.0333,3.0328,3.032,3.0312,3.0297,3.0287,3.028,3.0269,3.0255,3.0243,3.024,3.0234,3.0234,3.023,3.0238,3.0239,3.024,3.0242,3.0233,3.0233,3.0222,3.0222,3.0222]}]]